Pratham (41783 NORAD) Tracking and Keplerian Element Data

This shows tracking and keplerian element data for the satellite.

Feedback or suggestion? Click here.




ElementValue
Catalog41783
NamePratham
Epoch Orbit42972
Epoch Day286.52931708
Epoch Year2024
RAAN300.3784
Inclination97.8342
Eccentricity0.0032501
Argument of Perigee11.1415
Mean Anonmoly349.0501
Mean Motion14.65446535
Decay Rate3.569E-05
L11 41783U 16059A 24286.52931708 .00003569 00000-0 66283-3 0 9992
L22 41783 97.8342 300.3784 0032501 11.1415 349.0501 14.65446535429726



Live tracking and technical data element details for Pratham (NORAD 41783). Pratham can be tracked NOW for your location showing map with azimuth and elevation plus other details from your city location.







IsCatalogInMostPopularTable: catalog: 41783, numindb: 551
Update: records affected: 1



GetName: 41783 Pratham

Hit Count: updated at: Thu, 23 Jan 2025 17:26:49 GMT